Location: ?????????
(55.3018°N, 38.5467°E)
Time: 15:09:36
(UTC+00:00)

Daily predictions for brighter satellites

Satellite Brightness Start Highest point End
(mag) Time Altitude Azimuth Time Altitude Azimuth Time Altitude Azimuth
Cosmos 2366 rocket 4.1 16:54:48 10° N 17:01:11 80° ENE 17:07:34 10° SSE
Cosmos 1300 Rocket 4.2 17:00:12 10° SSE 17:04:12 36° E 17:08:14 10° NNE
CZ-4B R/B 3.6 16:59:12 10° S 17:04:52 74° WSW 17:10:29 10° NNW
Cosmos 2344 3.5 16:57:30 10° SW 17:04:52 73° SE 17:12:29 10° NE
NOSS 2-3 (D) 3.7 17:01:50 10° SSW 17:05:18 39° SE 17:09:18 10° ENE
USA 186 2.1 17:02:36 10° S 17:05:39 66° WSW 17:08:41 10° NNW
SPOT 1/Viking Rocket 4.1 17:00:37 10° S 17:05:49 65° WSW 17:11:02 10° NNW
DELTA 2 DEB (DPAF) 4.2 17:02:26 10° NNE 17:06:36 51° ESE 17:10:43 10° S
SJ 16-02 1.5 17:02:22 10° NNW 17:06:44 78° WSW 17:11:03 10° SSE
ATLAS 3B R/B 4.0 17:02:25 10° SE 17:06:55 18° ESE 17:11:34 10° ENE
Cosmos 2218 Rocket 4.1 17:01:32 10° N 17:08:00 85° E 17:14:24 10° SSE
Cosmos 1455 2.2 17:05:18 10° S 17:08:46 50° E 17:12:16 10° NNE
Cosmos 1953 2.1 17:07:15 10° S 17:11:03 75° E 17:14:54 10° NNE
USA 281 3.3 17:07:48 10° SSE 17:14:24 85° WSW 17:21:02 10° NNW
Cosmos 2098 Rocket 3.8 17:11:02 10° SSE 17:15:40 36° E 17:19:32 10° NNE
NOSS 2-2 (E) 2.9 17:12:41 10° SSW 17:15:44 51° SE 17:18:57 10° ENE
Cosmos 2278 Rocket 4.0 17:11:15 10° WSW 17:16:30 37° NW 17:21:46 10° NNE
Cosmos 2263 Rocket 4.3 17:12:59 10° NNW 17:16:48 18° NNE 17:20:37 10° ENE
Cosmos 1821 Rocket 4.1 17:10:46 10° N 17:16:58 64° ENE 17:23:03 10° SSE
Terra 2.9 17:17:25 10° ESE 17:21:27 29° ENE 17:25:31 10° N
CZ-4C R/B 3.9 17:18:32 10° NE 17:21:39 28° E 17:24:39 10° SSE
Genesis I 4.2 17:23:15 10° NW 17:26:36 34° NNE 17:29:57 10° E
Okean-O 2.6 17:22:32 10° SSE 17:26:55 74° ENE 17:31:21 10° NNW
NOSS 2-2 (D) 2.9 17:26:49 10° SSW 17:29:52 48° SE 17:33:01 10° ENE
Ariane Rocket 3.9 17:26:24 11° ESE 17:30:47 34° ENE 17:35:20 10° N
NOSS 2-3 (E) 3.3 17:28:04 10° SW 17:31:47 66° SE 17:36:11 10° NE
Cosmos 1486 Rocket 4.1 17:27:52 10° NNW 17:33:06 66° ENE 17:38:02 11° SE
SPOT 3 Rocket 4.4 17:30:51 11° ESE 17:35:15 35° ENE 17:39:55 10° N
BREEZE-M R/B 3.1 17:35:31 10° WSW 17:37:43 24° S 17:38:57 17° SE
Cosmos 1825 4.1 17:35:08 10° NNW 17:38:08 28° W 17:41:08 10° SSW
Cosmos 1025 Rocket 4.4 17:38:40 10° NNW 17:42:45 40° W 17:46:50 10° SSW
Cosmos 2084 Rocket 4.2 17:39:25 10° WSW 17:43:30 52° NNW 17:47:27 10° NE
USA 245 4.3 17:39:19 11° SE 17:44:25 50° ENE 17:48:55 10° N
Cosmos 1656 Rocket 3.8 17:39:23 10° SW 17:44:56 81° NW 17:50:27 10° NNE
USA 267 3.3 17:39:06 10° ENE 17:45:42 87° SSE 17:52:16 10° WSW
USA 129 2.6 17:45:16 10° N 17:47:55 64° WNW 17:50:30 10° SSW
Okean O Rocket 2.8 17:45:59 10° S 17:50:05 41° W 17:54:16 10° NNW
Cosmos 1302 Rocket 4.0 17:45:36 10° SSW 17:50:52 85° ESE 17:56:10 10° NNE
Cosmos 1975 Rocket 3.8 17:49:19 10° NNW 17:53:34 54° W 17:57:47 10° S
Resurs 01 Rocket 3.0 17:51:05 10° SSW 17:55:12 38° W 17:59:21 10° NNW
Iridium 4 Rocket 4.4 17:51:43 14° SE 17:55:48 37° E 18:01:02 10° NNE
Cosmos 2227 Rocket 3.4 17:52:30 10° NNW 17:57:38 33° NE 18:02:08 13° E
CZ-4C R/B 3.3 17:52:19 10° NW 17:58:25 53° NNE 18:05:51 11° E
ATLAS CENTAUR R/B 3.0 18:00:20 10° NW 18:03:24 24° NNE 18:06:32 10° ENE
Cosmos 1934 Rocket 4.0 17:57:36 10° N 18:03:41 63° ENE 18:08:46 15° SSE
ATLAS 5 CENTAUR R/B 2.1 18:01:59 14° S 18:04:06 24° ESE 18:07:13 10° ENE
Landsat 4 3.5 18:03:43 17° SSE 18:06:21 89° WSW 18:09:55 10° NNW
NOSS 3-1 (A) 4.0 18:06:18 10° S 18:10:33 27° ESE 18:15:28 10° ENE
Cosmos 1346 Rocket 4.2 18:07:55 10° SW 18:11:32 39° WNW 18:15:10 10° N
SPOT 5 3.3 18:08:59 11° S 18:14:13 76° WSW 18:19:32 10° NNW
NOSS 2-2 (C) 3.0 18:13:47 10° WSW 18:16:55 72° NW 18:20:17 10° NE
Cosmos 1943 Rocket 4.4 18:14:19 10° W 18:19:04 27° NNW 18:23:52 10° NNE
Cosmos 1536 Rocket 3.5 18:15:01 10° NNW 18:19:25 86° ENE 18:22:32 19° SSE
ERS-1 Rocket 2.9 18:16:37 17° SSE 18:20:30 88° ENE 18:25:34 10° NNW
COSMOS 2455 3.2 18:15:09 10° NW 18:21:08 59° NE 18:25:16 20° ESE
CENTAUR R/B 3.7 18:16:53 10° WNW 18:24:07 54° NNE 18:32:41 10° E
Cosmos 2151 Rocket 3.6 18:22:34 17° S 18:25:54 62° E 18:30:17 10° NNE
Cosmos 1777 Rocket 4.0 18:21:17 10° NNW 18:26:35 87° ENE 18:29:54 24° SSE
Cosmos 1461 4.2 18:23:07 10° WSW 18:27:00 41° NNW 18:30:47 10° NE
Cosmos 2297 Rocket 2.3 18:21:31 10° NNW 18:27:11 65° NE 18:30:35 24° SE
ARGOS Delta rocket 4.4 18:24:39 23° SE 18:27:51 56° ENE 18:33:12 10° N
SL-27 R/B 3.9 18:26:45 10° NW 18:29:13 24° WSW 18:30:59 15° SSW
NOSS 3-1 (C) 3.1 18:27:29 10° SSW 18:32:32 63° SE 18:38:43 10° NE
Cosmos 2219 4.3 18:28:30 10° NNW 18:33:42 35° NE 18:37:28 17° E
SL-4 R/B 1.9 18:30:53 10° WSW 18:34:19 45° S 18:34:56 40° SE
Cosmos 2369 Rocket 3.1 18:29:45 10° SW 18:35:18 53° NW 18:40:51 10° NNE
Cosmos 1354 Rocket 4.0 18:31:02 10° NNW 18:36:23 86° WSW 18:39:31 26° SSE
Cosmos 1503 Rocket 4.2 18:31:27 10° NNW 18:36:48 70° WSW 18:40:15 22° SSE
H-2A R/B 4.1 18:39:07 16° ENE 18:40:11 18° ENE 18:42:47 10° NNE
Cosmos 371 Rocket 3.5 18:38:07 10° NNW 18:42:53 65° WSW 18:45:33 25° S
SJ 16-02 4.1 18:42:32 10° WNW 18:44:19 12° W 18:46:06 10° WSW
Cosmos 1992 Rocket 4.2 18:40:45 10° SW 18:45:57 72° WNW 18:51:13 10° NNE
Okean 2 Rocket 3.1 18:45:50 17° SSW 18:49:17 88° WNW 18:53:50 10° NNE
Spot 2 Rocket 3.7 18:46:51 22° S 18:50:05 70° WSW 18:55:10 10° NNW
NOSS 2-3 (C) 4.5 18:46:46 10° WSW 18:50:33 48° NNW 18:55:15 10° NE
ARIANE 5 R/B 3.8 18:49:45 25° E 18:51:17 32° ENE 18:55:16 10° N
Cosmos 1892 Rocket 3.6 18:48:52 10° N 18:53:10 60° ENE 18:54:34 39° SE
ATLAS 3B R/B 2.9 18:49:10 10° SSW 18:56:12 61° SE 19:03:42 10° NE
Terra 2.4 18:55:55 22° S 18:58:51 54° W 19:03:31 10° NNW
Cosmos 304 Rocket 4.2 18:55:34 10° NNW 19:00:16 57° WSW 19:02:28 29° S
Nadezhda 3 Rocket 4.5 18:54:37 10° SSW 19:00:41 60° WNW 19:06:51 10° N
Cosmos 2263 Rocket 3.2 18:57:11 10° NNW 19:02:24 36° NE 19:05:39 20° E
Genesis I 3.3 18:59:40 10° NW 19:03:14 55° SW 19:03:48 48° SSW
Sich 1 Rocket 3.9 19:00:53 16° SSW 19:04:21 65° WNW 19:08:48 10° N
Cosmos 1656 4.0 19:02:53 34° SSE 19:04:35 43° ESE 19:09:46 10° NE
NOSS 8 (E) 4.1 19:02:11 10° NW 19:05:09 76° SW 19:05:21 71° S
MOS 1 Rocket 3.0 19:06:13 39° S 19:07:44 80° WSW 19:12:06 10° NNW
Cosmos 1605 Rocket 4.1 19:01:59 10° NNW 19:08:25 81° W 19:12:10 27° S
Ariane Rocket 3.7 19:06:32 22° SSW 19:09:37 49° W 19:14:32 10° NNW
NOSS 8 (H) 4.1 19:07:17 10° NW 19:10:14 89° SSW 19:10:22 82° SE
Cosmos 2173 Rocket 4.4 19:06:02 10° N 19:12:15 50° ENE 19:14:55 32° SE
Cosmos 332 Rocket 3.7 19:08:42 10° NNW 19:13:35 83° WSW 19:15:12 42° SSE
Cosmos 1437 Rocket 2.6 19:10:03 10° NNW 19:13:57 78° ENE 19:14:35 60° SE
SPOT 3 Rocket 4.2 19:11:28 23° SSW 19:14:30 51° W 19:19:35 10° NNW
ALOS 2 4.3 19:14:43 19° E 19:15:59 21° ENE 19:19:17 10° N
Cosmos 2344 4.3 19:12:33 10° W 19:19:40 53° NNW 19:27:47 10° ENE
Cosmos 1763 Rocket 3.9 19:25:21 40° ESE 19:25:38 40° ESE 19:30:25 10° NE
Okean 1 Rocket 3.4 19:24:18 27° SSW 19:26:38 63° WNW 19:31:06 10° N
Cosmos 405 Rocket 2.7 19:28:40 59° E 19:28:40 59° E 19:32:12 10° NNE
USA 267 3.4 19:22:09 10° E 19:28:43 78° N 19:35:17 10° W
CZ-2C R/B 4.4 19:24:38 10° NNE 19:29:06 38° E 19:29:16 38° ESE
Cosmos 990 Rocket 4.0 19:24:16 10° NNW 19:29:29 76° WSW 19:31:04 45° S
Cosmos 1455 Rocket 3.0 19:30:52 58° SSE 19:31:35 71° E 19:36:00 10° NNE
Aureole 1 Rocket 2.6 19:29:15 10° NNW 19:31:53 60° NNW 19:31:53 60° NNW
NOSS 3-2 (A) 4.2 19:27:34 10° NW 19:34:19 65° NNE 19:39:59 21° ESE
MetOp-A 4.3 19:39:03 33° SW 19:39:52 37° W 19:43:27 10° NNW
Cosmos 2016 Rocket 4.4 19:34:18 10° N 19:40:14 50° ENE 19:42:14 37° ESE
Cosmos 2100 Rocket 4.0 19:34:53 10° N 19:41:18 76° ENE 19:43:38 42° SSE
ATLAS CENTAUR R/B 1.1 19:38:00 10° NW 19:41:44 71° NE 19:41:52 70° ENE
Cosmos 2227 Rocket 2.2 19:36:32 10° NW 19:42:13 76° WSW 19:43:56 46° SSE
Cosmos 2360 4.4 19:42:16 45° SE 19:42:58 47° ESE 19:48:25 10° NE
Cosmos 1727 Rocket 4.0 19:40:46 40° SSE 19:43:08 71° E 19:49:23 10° NNE
Landsat 5 4.0 19:42:28 10° N 19:46:45 57° WNW 19:48:24 34° SW
CZ-4C R/B 2.9 19:40:40 10° NW 19:47:25 78° SW 19:50:57 37° SE
ATLAS 5 CENTAUR R/B 1.6 19:44:05 10° WSW 19:47:37 61° NNW 19:51:45 10° NE
Cosmos 1844 Rocket 4.4 19:44:04 10° NNW 19:48:48 26° NNE 19:53:11 11° E
Cosmos 468 Rocket 4.3 19:49:18 44° ESE 19:49:21 44° ESE 19:54:18 10° NE
PSLV R/B 4.5 19:46:18 10° NNE 19:49:41 43° ENE 19:49:41 43° ENE
Cosmos 44 3.9 19:50:43 43° ESE 19:50:43 43° ESE 19:55:17 10° NE
Cosmos 1980 Rocket 3.5 19:52:26 23° E 19:52:26 23° E 19:56:08 10° NE
Cosmos 1869 4.4 19:52:49 31° ENE 19:52:49 31° ENE 19:55:29 10° NNE
H-2A R/B 4.4 19:50:19 10° ENE 19:51:05 11° ENE 19:51:05 11° ENE
Cosmos 2228 3.9 19:55:26 34° ENE 19:55:26 34° ENE 19:58:47 10° NNE
USA 81 4.0 19:54:56 49° S 19:56:26 86° W 20:01:45 10° N
Cosmos 372 Rocket 3.9 19:53:09 10° NNW 19:58:25 83° ENE 19:59:30 57° SE
Cosmos 2058 3.0 19:54:29 10° NNW 19:58:29 60° W 19:58:42 58° WSW
Cosmos 540 Rocket 3.5 20:00:18 54° ESE 20:00:30 55° ESE 20:05:30 10° NE
NOSS 3-1 (A) 3.3 19:55:21 10° SW 20:00:37 83° NW 20:07:10 10° NE
Cosmos 2123 Rocket 4.3 20:00:05 42° SE 20:01:32 50° E 20:07:38 10° NNE
Cosmos 1697 Rocket 2.9 20:02:11 49° SE 20:02:33 50° ESE 20:08:01 10° NE
Cosmos 1000 Rocket 4.4 20:01:52 48° SSE 20:03:35 70° E 20:09:42 10° NNE
Meteor 2-15 4.4 19:59:32 10° NNW 20:05:44 85° ENE 20:07:30 50° SSE
Meteor 2-15 Rocket 4.5 20:00:05 10° N 20:06:16 69° ENE 20:07:58 48° SE
COSMOS 2455 3.4 20:01:18 10° NW 20:07:00 44° WSW 20:08:24 38° SSW
Cosmos 1544 4.4 20:05:38 10° N 20:07:19 30° N 20:07:19 30° N
USA 229 DEB 3.5 20:06:44 44° S 20:08:36 61° SE 20:15:25 10° NE
USA 229 3.5 20:06:53 44° S 20:08:42 60° SE 20:15:31 10° NE
Cosmos 1626 Rocket 3.5 20:05:15 10° NNW 20:09:38 74° W 20:09:54 71° SW
Cosmos 2297 Rocket 3.3 20:05:59 10° NW 20:10:54 31° WSW 20:12:24 27° SW
SL-4 R/B 4.3 20:09:33 10° W 20:09:47 11° W 20:09:47 11° W
Cosmos 2061 Rocket 4.2 20:07:03 10° N 20:13:29 64° ENE 20:15:22 45° SE
Cosmos 1937 Rocket 3.4 20:08:40 10° NNW 20:14:01 85° WSW 20:14:55 63° SSE
H-2A R/B 2.5 20:15:10 60° WNW 20:15:10 60° WNW 20:18:35 10° NNW
CENTAUR R/B 3.1 20:07:41 10° NW 20:15:34 85° SW 20:19:49 36° SE
Meteor 2-3 Rocket 3.6 20:10:42 10° NNW 20:16:23 87° WSW 20:17:38 57° S
Cosmos 2219 3.2 20:12:39 10° NW 20:18:20 71° WSW 20:19:22 57° S
Cosmos 1898 Rocket 3.6 20:13:16 10° NNW 20:18:30 62° WSW 20:19:15 56° SSW
Okean 1-7 Rocket 3.5 20:15:19 10° NNW 20:19:51 87° W 20:20:03 82° SSW
NOSS 3-1 (C) 4.2 20:18:11 10° W 20:23:33 52° NNW 20:30:12 10° NE
SL-08 R/B 4.5 20:17:47 10° N 20:24:14 81° ENE 20:25:55 52° SSE
Cosmos 1725 Rocket 3.9 20:19:58 10° NNW 20:26:12 89° WSW 20:27:47 54° S
ARIANE 5 R/B 3.3 20:27:13 44° WSW 20:27:34 45° W 20:31:55 10° NNW
Cosmos 1544 Rocket 3.5 20:31:55 76° W 20:31:57 77° WNW 20:36:18 10° N
Cosmos 2233 Rocket 3.9 20:26:53 10° N 20:33:03 75° ENE 20:34:32 53° SE
Cosmos 292 Rocket 4.1 20:31:08 10° NW 20:35:42 49° WSW 20:35:46 49° WSW
Cosmos 1666 3.8 20:33:29 10° N 20:36:01 35° NE 20:36:01 35° NE
Cosmos 1862 3.6 20:33:14 10° N 20:36:36 63° N 20:36:36 63° N
Cosmos 1606 3.4 20:38:29 49° N 20:38:29 49° N 20:41:15 10° NNE
Cosmos 1459 Rocket 4.4 20:33:33 10° NNW 20:39:24 52° W 20:41:05 41° SW
Cosmos 2082 3.6 20:34:47 10° NW 20:40:27 72° WSW 20:41:12 63° S
Cosmos 2263 Rocket 2.1 20:41:08 10° NW 20:46:43 65° WSW 20:47:19 61° SSW
NOSS 3-2 (C) 4.0 20:39:49 10° NW 20:46:46 76° NE 20:51:57 25° ESE
ATLAS 3B R/B 3.4 20:39:52 10° WSW 20:47:09 61° NNW 20:54:50 10° NE
Cosmos 1656 4.4 20:44:12 18° WSW 20:48:13 49° NW 20:53:33 10° NNE
Cosmos 1758 Rocket 4.2 20:45:59 10° NNW 20:50:11 46° W 20:50:11 46° W
Cosmos 1602 Rocket 4.1 20:46:25 10° NNW 20:50:27 49° W 20:50:27 49° W
ALOS 2 2.7 20:52:06 70° W 20:52:06 70° W 20:56:19 10° NNW
SL-19 R/B 4.2 20:46:53 10° NNE 20:52:30 78° ESE 20:53:25 63° S
Cosmos 2322 Rocket 4.3 20:55:58 13° E 20:55:58 13° E 20:58:22 10° ENE
Cosmos 1500 4.2 20:54:46 10° NNW 20:57:11 42° NNW 20:57:11 42° NNW
Spot 4 4.3 21:00:01 48° WSW 21:00:11 48° W 21:04:51 10° NNW
Lacrosse 4 Rocket 3.8 21:03:10 13° ENE 21:03:10 13° ENE 21:03:54 10° ENE
Cosmos 1763 Rocket 4.4 21:05:16 29° WSW 21:07:24 44° NW 21:12:20 10° NNE
Cosmos 1844 4.3 21:02:06 10° NNW 21:07:44 53° NE 21:10:04 33° ESE
Meteor 1-27 4.0 21:09:03 69° S 21:09:48 87° ESE 21:15:24 10° NNE
Uosat 12 SS-18 rocket 4.1 21:05:48 10° NW 21:10:14 76° NW 21:10:14 76° NW
Cosmos 1825 Rocket 3.8 21:07:03 10° NNW 21:11:00 59° WNW 21:11:00 59° WNW
SL-16 R/B 3.6 21:11:38 25° ESE 21:11:38 25° ESE 21:16:00 10° NE
USA 267 3.1 21:08:16 30° ESE 21:11:48 81° SSW 21:18:24 10° WNW
Cosmos 1606 Rocket 3.7 21:12:47 70° NE 21:12:47 70° NE 21:16:42 10° NNE
Cosmos 2058 Rocket 3.9 21:17:39 39° ENE 21:17:39 39° ENE 21:21:16 10° NNE
ATLAS CENTAUR R/B 3.7 21:16:16 10° WNW 21:16:59 14° WNW 21:16:59 14° WNW
Cosmos 2227 Rocket 4.0 21:21:49 10° WNW 21:25:23 17° W 21:25:45 17° WSW
NOSS 3-2 (A) 4.1 21:18:22 10° NW 21:25:24 58° SW 21:27:19 47° S
Cosmos 1271 Rocket 3.7 21:24:34 10° NNW 21:27:20 43° NW 21:27:20 43° NW
H-2A R/B 2.2 21:24:18 10° NNE 21:27:56 66° NE 21:27:56 66° NE
GEOS 3 Rocket 3.8 21:27:49 37° ESE 21:29:59 71° NE 21:35:16 10° NW
Cosmos 2278 4.2 21:30:50 42° ESE 21:30:57 42° ESE 21:36:15 10° NE
Cosmos 44 4.0 21:29:00 31° W 21:31:26 58° NW 21:36:38 10° NE
ATLAS 5 CENTAUR R/B 3.4 21:28:49 10° WNW 21:32:15 29° N 21:36:15 10° NE
Cosmos 2228 4.2 21:32:00 31° WNW 21:32:16 32° WNW 21:36:05 10° N
Geosat 3.9 21:33:18 74° SW 21:33:24 74° WSW 21:38:27 10° NW
Cosmos 1844 Rocket 2.7 21:27:55 10° NNW 21:33:35 77° NE 21:34:48 55° SE
Cosmos 1076 Rocket 3.6 21:30:10 10° NNW 21:34:03 71° NNW 21:34:03 71° NNW
Cosmos 1125 Rocket 3.5 21:29:42 10° NNW 21:34:57 76° ENE 21:35:40 65° ESE
Cosmos 1980 Rocket 2.1 21:34:09 61° SW 21:35:10 82° NW 21:40:52 10° NNE
CZ-4C R/B 4.0 21:29:29 10° WNW 21:35:27 28° WSW 21:36:02 28° SW
Cosmos 2344 4.4 21:28:07 10° WNW 21:35:30 55° NNE 21:44:52 10° E
PSLV R/B 3.6 21:31:52 10° NNE 21:36:24 88° NNE 21:36:24 88° NNE
Cosmos 2151 3.5 21:35:59 10° NNW 21:39:32 51° WNW 21:39:32 51° WNW
Cosmos 1238 Rocket 4.0 21:44:01 33° NNE 21:44:01 33° NNE 21:46:05 10° NNE
Cosmos 841 Rocket 3.9 21:43:46 48° W 21:44:47 56° WNW 21:49:52 10° NNE
USA 238 DEB 3.8 21:39:07 10° NW 21:46:17 88° NE 21:51:10 25° SE
USA 238 3.8 21:39:12 10° NW 21:46:23 88° NE 21:51:23 24° SE
Cosmos 1697 Rocket 3.6 21:43:51 26° W 21:46:38 45° NW 21:52:06 10° NNE
Helios 1A Rocket 3.2 21:49:34 61° NNE 21:49:34 61° NNE 21:53:05 10° NNW
Cosmos 2227 4.3 21:45:53 10° NW 21:51:28 55° WSW 21:51:39 55° WSW
Cosmos 1809 Rocket 4.4 21:50:41 57° SSE 21:51:57 76° E 21:58:10 10° NNE
Intercosmos 24 4.4 21:52:31 70° WSW 21:52:56 76° WNW 21:57:09 10° N
Cosmos 1726 Rocket 3.9 21:55:10 55° WNW 21:55:10 55° WNW 21:59:17 10° N
Cosmos 2369 3.7 21:54:29 56° WSW 21:55:41 75° NW 22:01:22 10° NNE
USA 229 DEB 4.2 21:54:04 14° WSW 21:59:42 58° NNW 22:06:49 10° NE
USA 229 4.2 21:54:13 14° WSW 21:59:48 58° NNW 22:06:55 10° NE
Cosmos-2242 3.7 22:01:13 45° E 22:01:13 45° E 22:05:02 10° NNE
Cosmos 2150 Rocket 4.0 21:56:04 10° NNW 22:01:14 75° ENE 22:02:11 58° SE
Cosmos 2298 Rocket 4.1 21:56:32 10° NNW 22:01:53 77° ENE 22:02:58 57° SE
Cosmos 2346 Rocket 4.4 22:03:20 55° SSW 22:04:45 77° WNW 22:11:01 10° N
CENTAUR R/B 3.9 21:58:38 10° WNW 22:05:50 34° WSW 22:06:56 33° SW
Meteor 1-25 Rocket 4.1 22:02:42 10° NNW 22:08:24 89° W 22:09:25 62° SSE
Meteor 1-20 Rocket 4.1 22:03:52 10° NNW 22:09:27 77° W 22:10:17 64° SSW
Cosmos 1867 4.4 22:05:59 10° NW 22:11:21 49° NNE 22:16:40 10° ESE
CZ-2C R/B 4.2 22:08:26 12° ESE 22:12:40 31° ENE 22:17:20 10° N
USA 215 3.4 22:11:16 10° ENE 22:17:39 51° SE 22:18:42 47° S
Meteor 2-14 Rocket 4.4 22:18:19 55° SSW 22:19:46 81° WNW 22:25:58 10° N
Cosmos 1464 Rocket 4.1 22:14:14 10° NNW 22:20:31 62° W 22:21:54 50° SW
Resurs 1-4 Rocket 3.9 22:17:31 10° NE 22:21:38 22° E 22:23:46 18° ESE
Aureole 3 Rocket 3.2 22:18:03 10° N 22:23:37 75° ENE 22:24:02 68° ESE
Cosmos 2333 Rocket 3.1 22:22:54 33° SE 22:23:52 35° ESE 22:28:57 10° NE
Lacrosse 5 3.4 22:26:26 23° ESE 22:26:26 23° ESE 22:29:43 10° E
Cosmos 2221 4.0 22:27:05 26° ESE 22:27:45 27° E 22:31:20 10° NNE
Cosmos 2360 Rocket 2.8 22:28:10 39° SE 22:29:08 43° ESE 22:34:27 10° NE
Cosmos 2263 Rocket 4.2 22:26:47 10° WNW 22:28:59 14° W 22:28:59 14° W
Cosmos 1766 Rocket 4.5 22:25:34 10° N 22:29:43 42° ENE 22:30:47 35° ESE
NOSS 3-4 (A) 4.4 22:29:01 26° SE 22:29:47 27° ESE 22:34:43 10° ENE
NOSS 3-4 (C) 4.5 22:29:04 26° SE 22:29:50 27° ESE 22:34:45 10° ENE
Cosmos 2278 Rocket 3.7 22:29:07 10° NNW 22:34:23 36° NE 22:39:37 10° ESE
Cosmos 1814 Rocket 4.3 22:34:20 46° WSW 22:35:28 56° WNW 22:40:34 10° NNE
Cosmos 1570 Rocket 3.9 22:36:43 64° S 22:37:32 82° ESE 22:42:47 10° NNE
NOSS 3-2 (C) 4.3 22:30:45 10° NW 22:37:39 46° SW 22:39:19 41° SSW
USA 32 4.0 22:37:08 60° S 22:38:06 84° E 22:43:23 10° N
Cosmos 2322 Rocket 2.3 22:37:45 51° SSE 22:38:50 61° ESE 22:44:23 10° NE
Lacrosse 4 Rocket 1.3 22:39:06 75° NNW 22:39:06 75° NNW 22:42:59 10° NE
Cosmos 2034 Rocket 4.0 22:33:01 10° NNW 22:39:09 64° W 22:40:37 49° SSW
ATLAS 3B R/B 4.0 22:32:00 10° WNW 22:39:12 45° N 22:46:39 10° ENE
Cosmos 2084 Rocket 4.4 22:38:47 10° NW 22:41:08 34° WNW 22:41:08 34° WNW
IDEFIX/ARIANE 42P 3.7 22:38:24 10° NNE 22:43:10 36° E 22:44:58 28° SE
Cosmos 1743 3.6 22:41:15 10° N 22:44:46 40° ENE 22:45:18 38° E
Cosmos 1812 3.8 22:45:20 33° NW 22:45:20 33° NW 22:48:11 10° N
BlueWalker 3 3.8 22:49:11 21° ESE 22:49:11 21° ESE 22:50:35 10° ESE
Cosmos 2219 Rocket 3.3 22:45:40 28° SE 22:47:13 33° ESE 22:52:09 10° NE
NOSS 2-2 (E) 4.2 22:43:33 10° NW 22:47:18 54° NNE 22:52:22 10° ESE
Cosmos 1844 4.2 22:46:26 10° NW 22:51:48 41° WSW 22:51:55 41° WSW
Cosmos 1933 3.2 22:52:13 85° ENE 22:52:13 85° ENE 22:56:08 10° NNE
SL-16 R/B 2.2 22:53:27 49° SW 22:55:02 80° NW 23:00:46 10° NNE
Cosmos 2058 Rocket 4.2 22:54:51 29° WNW 22:55:14 30° WNW 22:59:05 10° N
USA 267 3.6 22:55:32 40° SW 22:55:32 40° SW 23:01:30 10° WNW
NOSS 2-1 (C) 3.7 22:58:32 45° NE 22:58:32 45° NE 23:00:49 10° NE
NOSS 2-1 (E) 3.7 22:58:37 43° NE 22:58:37 43° NE 23:00:51 10° NE
Cosmos 1782 2.9 23:00:58 61° WNW 23:00:58 61° WNW 23:04:37 10° N
H-2A R/B 3.8 22:57:10 10° NNE 23:01:11 51° E 23:01:44 47° SE
NOSS 2-2 (D) 4.2 22:57:53 10° NW 23:01:34 53° NNE 23:06:29 10° ESE
H-2A R/B 4.0 23:00:56 10° NNW 23:03:45 18° NW 23:04:46 17° WNW
Cosmos 1634 Rocket 3.9 22:58:39 10° NNW 23:04:59 76° W 23:07:26 40° S
Cosmos 1812 Rocket 3.5 23:04:37 62° WSW 23:05:05 67° WNW 23:09:33 10° N
Timation 2 Rocket 4.4 23:00:38 10° NW 23:06:54 44° WSW 23:08:04 40° SW
GEOS 3 Rocket 4.2 23:08:51 37° WSW 23:08:51 37° WSW 23:13:14 10° WNW
Meteor 1-26 Rocket 4.3 23:06:37 41° S 23:08:39 74° E 23:14:29 10° NNE
ADEOS II 3.4 23:04:39 10° NNE 23:09:23 32° E 23:12:19 19° SE
Meteor 1-14 Rocket 4.3 23:04:57 10° NNW 23:10:30 73° ENE 23:13:40 26° SSE
SL-16 R/B 3.0 23:06:50 10° SE 23:12:54 60° ENE 23:19:02 10° NNW
Meteor 1-28 Rocket 4.3 23:11:21 26° ESE 23:12:56 40° ENE 23:16:24 10° N
Cosmos 2278 4.2 23:12:43 32° WSW 23:15:02 51° NW 23:20:35 10° NNE
Cosmos 2142 Rocket 4.4 23:10:22 10° N 23:16:33 84° E 23:20:05 27° SSE
Cosmos 1844 Rocket 3.9 23:12:27 10° NW 23:16:26 25° W 23:16:26 25° W
ATLAS 5 CENTAUR R/B 3.3 23:13:15 10° NW 23:17:10 35° NNE 23:21:52 10° E
Cosmos 1980 Rocket 3.8 23:15:53 13° W 23:20:00 27° NNW 23:24:50 10° NNE
CZ-2D R/B 2.6 23:15:17 10° NNE 23:20:31 54° E 23:23:02 30° SSE
Cosmos 1726 3.4 23:17:50 10° N 23:20:47 32° ENE 23:21:59 24° ESE
Cosmos 1461 3.1 23:20:39 10° NW 23:24:32 63° NE 23:28:20 10° ESE
NOSS 2-1 (D) 3.3 23:25:50 47° NNW 23:25:50 47° NNW 23:28:47 10° NE
Cosmos 2084 3.9 23:28:22 35° WNW 23:29:32 48° NNW 23:33:15 10° NE
Cosmos 1515 4.1 23:29:51 44° WNW 23:29:51 44° WNW 23:33:13 10° N
Cosmos 2208 Rocket 4.4 23:28:56 37° WSW 23:30:53 58° WNW 23:36:18 10° NNE
Cosmos 1900 4.4 23:28:38 10° NW 23:33:38 55° SW 23:35:34 34° S
MOZ.5/SAFIR/RUBIN 5/SL-8 4.5 23:33:38 35° WSW 23:33:53 35° W 23:38:14 10° NNW
Cosmos 1943 Rocket 3.1 23:30:17 10° NNW 23:35:48 50° NE 23:41:19 10° ESE
USA 238 DEB 4.5 23:30:22 10° WNW 23:36:45 34° WSW 23:38:30 31° SW
USA 238 4.5 23:30:28 10° WNW 23:36:52 35° WSW 23:38:43 31° SW
Cosmos 1408 Rocket 3.8 23:32:58 10° N 23:37:16 64° ENE 23:39:56 22° SSE
Cosmos 1842 Rocket 4.0 23:36:39 32° SSE 23:38:31 58° E 23:42:54 10° NNE
Cosmos-2242 4.3 23:37:49 25° W 23:38:31 26° WNW 23:42:07 10° N
COSMOS 2428 3.6 23:40:42 22° SSE 23:43:51 42° ESE 23:49:12 10° NE
IRIDIUM 104 4.2 23:38:52 10° N 23:44:07 79° W 23:46:42 31° S
Meteor 1-11 Rocket 3.9 23:40:18 10° NNW 23:45:57 73° ENE 23:51:28 10° SSE
NOSS 2-2 (C) 3.6 23:44:52 10° NW 23:48:49 89° NE 23:54:15 10° SE
Cosmos 1378 3.5 23:50:17 39° WNW 23:50:21 39° WNW 23:53:34 10° N
Cosmos 2237 Rocket 4.1 23:48:03 10° SSE 23:52:25 23° ESE 23:56:49 10° NE
CZ-2C R/B 2.7 23:49:54 29° S 23:52:41 60° WSW 23:58:01 10° NNW
Cosmos 2369 Rocket 4.4 23:48:05 10° NNW 23:52:50 27° NNE 23:57:32 10° E
IRIDIUM 114 4.3 23:48:03 10° N 23:53:16 68° W 23:55:51 30° SSW
Cosmos 1805 Rocket 4.1 23:49:18 10° N 23:53:37 58° ENE 23:57:50 10° SSE
Cosmos 1500 Rocket 3.8 23:49:49 10° N 23:54:19 71° ENE 23:57:59 15° SSE
